Location: Haliburton Scout Reserve
(45.0900°N, 78.3200°W)
Time: 05:44:56
(UTC-04:00)

CUBEBUG 2 - Visible Passes

Search period start: 16 May 2022 00:00
Search period end: 26 May 2022 00:00
Orbit: 585 x 693 km, 97.7° (Epoch: 15 May)

Date Brightness Start Highest point End Pass type
(mag) Time Alt. Az. Time Alt. Az. Time Alt. Az.
16 May ? 03:10:34 10° NE 03:13:21 16° E 03:16:05 10° SE visible
16 May ? 04:45:47 10° N 04:50:16 55° WNW 04:54:34 10° SSW visible
17 May ? 03:32:54 10° NE 03:36:44 26° E 03:40:27 10° SSE visible
18 May ? 03:55:41 10° NNE 04:00:03 45° E 04:04:14 10° S visible
19 May ? 04:18:42 10° NNE 04:23:15 79° ESE 04:27:35 10° S visible
20 May ? 03:06:58 10° NE 03:09:23 14° E 03:11:47 10° ESE visible
20 May ? 04:41:54 10° N 04:46:21 60° WNW 04:50:37 10° SSW visible
21 May ? 03:29:08 10° NE 03:32:47 24° E 03:36:18 10° SSE visible
22 May ? 03:51:50 10° NNE 03:56:04 41° E 04:00:09 10° SSE visible
23 May ? 04:14:48 10° NNE 04:19:16 73° ESE 04:23:33 10° S visible
24 May ? 03:03:22 10° ENE 03:05:22 13° E 03:07:20 10° ESE visible
24 May ? 04:37:58 10° N 04:42:22 65° WNW 04:46:37 10° SSW visible
25 May ? 03:25:19 10° NE 03:28:45 22° E 03:32:04 10° SE visible
